Weather History for Aberdeen, SD

Change the Weather History Date:

Sunday, February 3, 2013

  Actual Average Record
Temperature  
Mean Temperature 13 °F 14 °F  
Max Temperature 20 °F 25 °F 58 °F (1991)
Min Temperature 6 °F 3 °F -38 °F (1893)
Degree Days  
Heating Degree Days 52 51  
Month to date heating degree days 169 154  
Since 1 July heating degree days 5182 5288  
Cooling Degree Days 0 0  
Month to date cooling degree days 0 0  
Year to date cooling degree days 0 0  
Moisture  
Dew Point 7 °F    
Average Humidity 73    
Maximum Humidity 80    
Minimum Humidity 66    
Precipitation  
Precipitation 0.00 in 0.01 in 0.56 in (1997)
Month to date precipitation 0.04 0.04  
Year to date precipitation 0.82 0.51  
Snow  
Snow 0.00 in - - ()
Month to date snowfall 0.6  
Since 1 July snowfall 24.1  
Snow Depth 6.00 in    
Sea Level Pressure  
Sea Level Pressure 30.04 in    
Wind  
Wind Speed 9 mph (ENE)    
Max Wind Speed 18 mph    
Max Gust Speed 22 mph    
Visibility 10 miles    
Events      
T = Trace of Precipitation, MM = Missing Value Source: NWS Daily Summary

Daily Weather History Graph

Daily Weather History Graph

Search for Another Location

Airport:

Trip Planner

Search our weather history database for the weather conditions in past years. The results will help you decide how hot, cold, wet, or windy it might be!

Date:

Astronomy

Feb. 03, 2013 Rise Set
Actual Time 7:51 AM CST 5:43 PM CST
Civil Twilight 7:20 AM CST 6:15 PM CST
Nautical Twilight 6:45 AM CST 6:50 PM CST
Astronomical Twilight 6:10 AM CST 7:25 PM CST
Moon 1:21 AM CST (2/3) 11:20 AM CST (2/3)
Length of Visible Light 10h 54m
Length of Day
9h 52m
Waning Gibbous, 48% of the Moon is Illuminated
Feb 3
Waning Gibbous
Feb 10
New
Feb 17
First Quarter
Feb 25
Full
Mar 4
Last Quarter

Hourly Weather History & Observations

Time (CST) Temp. Windchill Dew Point Humidity Pressure Visibility Wind Dir Wind Speed Gust Speed Precip Events Conditions
12:53 AM 9.0 °F -5.1 °F 1.9 °F 73% 30.23 in 10.0 mi NW 10.4 mph - N/A   Scattered Clouds
1:53 AM 10.4 °F -0.4 °F 1.4 °F 67% 30.13 in 10.0 mi West 6.9 mph - N/A   Overcast
2:53 AM 12.9 °F -2.2 °F 5.0 °F 71% 30.19 in 10.0 mi West 13.8 mph - N/A   Overcast
3:53 AM 14.0 °F - 8.1 °F 77% 30.15 in 10.0 mi Calm Calm - N/A   Overcast
4:53 AM 14.0 °F - 7.0 °F 74% 30.14 in 10.0 mi Calm Calm - N/A   Overcast
5:53 AM 14.0 °F - 9.0 °F 80% 30.13 in 10.0 mi Calm Calm - N/A   Overcast
6:53 AM 15.1 °F - 9.0 °F 77% 30.10 in 10.0 mi Calm Calm - N/A   Overcast
7:53 AM 15.1 °F 6.4 °F 10.0 °F 80% 30.11 in 10.0 mi ESE 5.8 mph - N/A   Overcast
8:53 AM 14.0 °F 2.0 °F 9.0 °F 80% 30.09 in 10.0 mi ESE 9.2 mph - N/A   Overcast
9:53 AM 14.0 °F 3.9 °F 9.0 °F 80% 30.08 in 10.0 mi ESE 6.9 mph - N/A   Overcast
10:53 AM 17.1 °F 5.0 °F 9.0 °F 71% 30.06 in 10.0 mi East 10.4 mph - N/A   Clear
11:53 AM 17.1 °F 3.0 °F 9.0 °F 71% 30.03 in 10.0 mi East 13.8 mph - N/A   Clear
12:53 PM 19.0 °F 10.0 °F 10.9 °F 71% 30.00 in 10.0 mi East 6.9 mph - N/A   Clear
1:53 PM 19.0 °F 9.0 °F 10.9 °F 71% 29.98 in 10.0 mi East 8.1 mph - N/A   Partly Cloudy
2:53 PM 19.9 °F 8.6 °F 12.0 °F 71% 29.95 in 10.0 mi ENE 10.4 mph - N/A   Overcast
3:07 PM 19.4 °F 7.9 °F 12.2 °F 74% 29.88 in 10.0 mi NE 10.4 mph - N/A   Overcast
3:53 PM 19.0 °F 6.1 °F 10.9 °F 71% 29.93 in 10.0 mi NE 12.7 mph - N/A   Overcast
4:23 PM 19.4 °F 7.2 °F 10.4 °F 68% 29.86 in 10.0 mi ENE 11.5 mph - N/A   Overcast
4:53 PM 19.0 °F 6.1 °F 12.0 °F 74% 29.93 in 10.0 mi NE 12.7 mph - N/A   Overcast
5:53 PM 17.1 °F 3.0 °F 10.0 °F 74% 29.95 in 10.0 mi NE 13.8 mph - N/A   Overcast
6:53 PM 12.9 °F -3.4 °F 7.0 °F 77% 29.98 in 10.0 mi NNE 16.1 mph - N/A   Overcast
7:53 PM 10.0 °F -7.1 °F 3.9 °F 76% 30.00 in 10.0 mi NE 16.1 mph - N/A   Overcast
8:53 PM 9.0 °F -6.6 °F 3.9 °F 80% 30.01 in 10.0 mi NE 12.7 mph - N/A   Overcast
9:53 PM 8.1 °F -7.7 °F 1.9 °F 76% 30.03 in 10.0 mi NNE 12.7 mph - N/A   Overcast
10:53 PM 7.0 °F -7.5 °F 1.0 °F 77% 30.04 in 10.0 mi NE 10.4 mph - N/A   Overcast
11:53 PM 7.0 °F -8.3 °F 1.0 °F 77% 30.07 in 10.0 mi NE 11.5 mph - N/A   Overcast